Вернуться в каталог

COSMOS 1579 COOLANT

LostLEO
NORAD 45516·DEBRIS·🇷🇺 Russia

Запущен Jun 29, 1984 с Baikonur Cosmodrome

Loading…

Ближайшие Пролёты (ближайшие 24 часа)

TLE

УстаревшееSource: Space-Track

Эпоха: May 6, 2024, 13:53 UTC

1 45516U 84069AM  24127.57914539  .00000070  00000-0  13210-3 0  9994
2 45516  65.0505 245.7019 0061871 286.3836  73.0430 13.87622740799812

Отслеживайте COSMOS 1579 COOLANT в реальном времени с AllMySat

Download on the App Store